User: anonymous   Login
Location: Newark
(48.4472°N, 1.4892°E)
Time: 06:17:09
(UTC+00:00)
Language:

A-11 Canister half - Orbit

View from above orbital plane
View from above orbital plane
View from above satellite
View from above satellite

Ground track
Ground track

The orbit data is extracted from the following two-line orbital elements,

1    53U 60009E   19322.77648101  .00000020  00000-0  10296-2 0  9996
2    53  47.2742 191.7585 0097375 174.8803 185.3002 12.17233230642784
Epoch (UTC): 18 November 2019 18:38:07
Eccentricity: 0.0097375
inclination: 47.2742°
perigee height: 1527 km
apogee height: 1682 km
right ascension of ascending node: 191.7585°
argument of perigee: 174.8803°
revolutions per day: 12.17233230
mean anomaly at epoch: 185.3002°
orbit number at epoch: 64278

The dashed part of the orbit path shows where the satellite is in the earth's shadow,  

DLR